• Processing (Info)

  • MPEC 2023-J86 : 2023 JJ

    The following Minor Planet Electronic Circular may be linked-to from your own Web pages, but must not otherwise be redistributed electronically.

    A form allowing access to any MPEC is at the bottom of this page.


    Read MPEC 2023-J85 Read MPEC 2023-J87


    M.P.E.C. 2023-J86                                  Issued 2023 May 10, 22:01 UT
    
         The Minor Planet Electronic Circulars contain information on unusual
             minor planets, routine data on comets and natural satellites,
             and occasional editorial announcements.  They are published
        on behalf of Division F of the International Astronomical Union by the
              Minor Planet Center, Smithsonian Astrophysical Observatory,
                              Cambridge, MA 02138, U.S.A.
    			  
                 Prepared using the Tamkin Foundation Computer Network
    
                                  MPC@CFA.HARVARD.EDU
                URL https://www.minorplanetcenter.net/    ISSN 1523-6714
    
                                     2023 JJ                                 
    
    
    Observations:
         K23J00J*1C2023 05 09.24111012 33 06.527-11 02 58.09         18.97GVEJ086703
         K23J00J 1C2023 05 09.24233712 33 06.289-11 02 22.24         18.62GVEJ086703
         K23J00J 1C2023 05 09.24356412 33 06.217-11 01 44.47         18.94GVEJ086703
         K23J00J 1C2023 05 09.24478912 33 06.066-11 01 07.93         18.70GVEJ086703
         K23J00J KC2023 05 09.28691712 33 03.150-10 40 07.36         18.72GVEJ086I52
         K23J00J KC2023 05 09.28743212 33 03.128-10 39 51.95         18.83GVEJ086I52
         K23J00J KC2023 05 09.28794512 33 03.096-10 39 36.43         18.76GVEJ086I52
         K23J00J KC2023 05 09.28845712 33 03.067-10 39 21.38         18.62GVEJ086I52
         K23J00J KC2023 05 09.86172 12 34 36.95 -06 14 23.6          18.6 GXEJ086Z41
         K23J00J KC2023 05 09.86523 12 34 36.78 -06 12 51.8          19.2 GXEJ086Z41
         K23J00J 1C2023 05 10.19609612 35 06.745-03 52 33.60         20.34GVEJ086703
         K23J00J 1C2023 05 10.19639212 35 06.724-03 52 26.00         19.09GVEJ086703
         K23J00J 1C2023 05 10.19698412 35 06.695-03 52 12.36         19.35GVEJ086703
         K23J00J KC2023 05 10.81276 12 36 13.68 +00 09 45.7          19.7 VZEJ086M49
         K23J00J KC2023 05 10.82702 12 36 12.24 +00 14 47.9          19.5 VZEJ086M49
         K23J00J KC2023 05 10.84033 12 36 10.87 +00 19 30.4          19.7 VZEJ086M49
         K23J00J KC2023 05 10.85003212 36 17.55 +00 13 42.8          19.0 GXEJ086958
         K23J00J KC2023 05 10.85674812 36 17.09 +00 16 05.4          18.5 GXEJ086958
         K23J00J KC2023 05 10.86317512 36 16.66 +00 18 20.0          18.5 GXEJ086958
    
    Observer details:
    703 Catalina Sky Survey.  Observer J. K. Hogan.  Measurers E. J. Christensen,
        D. Fay, J. B. Fazekas, D. C. Fuls, A. R. Gibbs, A. D. Grauer, H. Groeller,
        J. K. Hogan, R. A. Kowalski, S. M. Larson, G. J. Leonard, D. Rankin, R. L.
        Seaman, A. Serrano, F. C. Shelly, K. W. Wierzchos.  0.68-m Schmidt + 10K
        CCD.
    958 Observatoire de Dax.  Observer P. Dupouy.  0.50-m f/4.5 Reflector + CCD.
    I52 Steward Observatory, Mt. Lemmon Station.  Observer R. A. Kowalski.
        Measurers E. J. Christensen, D. Fay, J. B. Fazekas, D. C. Fuls, A. R.
        Gibbs, A. D. Grauer, H. Groeller, J. K. Hogan, R. A. Kowalski, S. M.
        Larson, G. J. Leonard, D. Rankin, R. L. Seaman, A. Serrano, F. C. Shelly,
        K. W. Wierzchos.  1.0-m prime focus + CCD.
    M49 IAS Remote Observatory, Hakos.  Observer D. Husar.  0.25-m f/4.6 reflector
        + CCD.
    Z41 Irydeo Observatory, Camarma de Esteruelas.  Observer F. Calvo.  0.28-m
        f/2.2 reflector + CCD.
    
    Orbital elements:
    2023 JJ                                                  Earth MOID = 0.0114 AU
    Epoch 2023 Feb. 25.0 TT = JDT 2460000.5                 Veres                   
    M  65.14305              (2000.0)            P               Q                  
    n   1.19312418     Peri.  198.73687     +0.38641706     -0.91848301             
    a   0.8803978      Node   228.62567     +0.85988924     +0.39173218             
    e   0.1741208      Incl.    6.43389     +0.33357511     +0.05417437             
    P   0.83           H   26.75          G   0.15           U   7                  
    Residuals in seconds of arc
    230509 703  1.8+  0.3+    230509 I52  0.0   0.0     230510 M49  0.7-  0.8-
    230509 703  0.2-  0.6-    230509 Z41  0.0   0.5-    230510 M49  0.6-  0.0
    230509 703  0.2+  0.3+    230509 Z41  0.9+  0.4-    230510 958  1.5+  0.1+
    230509 703  0.5-  0.1+    230510 703  0.0   0.1+    230510 958  0.4+  0.8+
    230509 I52  0.1-  0.0     230510 703  0.0   0.5+    230510 958  0.4-  0.1-
    230509 I52  0.0   0.0     230510 703  0.4+  0.3-
    230509 I52  0.0   0.2+    230510 M49  1.0-  0.3-
    
    Ephemeris:
    2023 JJ                  a,e,i = 0.88, 0.17, 6                   q = 0.7271
    Date    TT    R. A. (2000) Decl.     Delta      r    Elong.  Phase     V
    2023 04 10    00 52 16.2 -51 38 07   0.06533 0.9700    59.4   117.2    25.4
    ...
    2023 04 25    01 02 57.3 -65 49 25   0.03012 1.0008    79.7    98.6    22.7
    ...
    2023 05 03    11 28 42.8 -78 43 20   0.01403 1.0133   112.9    66.4    19.9
    ...
    2023 05 09    12 32 43.0 -12 59 00   0.01416 1.0208   143.9    35.6    19.0
    2023 05 10    12 34 44.8 -05 08 35   0.01571 1.0218   141.2    38.2    19.3
    2023 05 11    12 36 24.4 +01 11 04   0.01751 1.0228   137.9    41.4    19.6
    ...
    2023 05 17    12 42 51.6 +20 47 24   0.03070 1.0279   122.3    56.2    21.3
    ...
    2023 05 25    12 49 03.9 +29 13 06   0.05012 1.0319   111.3    66.2    22.7
    ...
    2023 06 09    13 00 14.3 +33 44 08   0.08565 1.0313    98.6    76.7    24.2
    
    M. P. C. Staff               (C) Copyright 2023 MPC           M.P.E.C. 2023-J86
    


    Read MPEC 2023-J85 Read MPEC 2023-J87


    MPEC number:

    Enter an MPEC number in one of the following forms:

    • 1997-B01 (the full form)
    • J97B01 (the packed version of the full form)
    • B01 (the abbreviated form)